Group_ship,Cruise,JD_GMT,Date_DDMMYYYY,TIME_HH:MM:SS,Lat_dec_degree,Long_dec_degree,xCO2eq_ppm,xCO2a_ppm,Pres_Equi_hPa,Pres_sealevel_hPa,EqTemp_C,SST(TSG)_C,Sal(TSG)_Permil,Water_flow_l/min,Gasflow_IR_ml/min,Temp_IR_C,Pres_IR_hPa,Ship_heading_true_degree,Ship_speed_knot,Wind_dir_rel_degree,Wind_speed_rel_m/s,fCO2W@SST_uatm,Qcflag_water,fCO2a_uatm,Qcflag_air,dfCO2_uatm,Fluoro_ug/l,Wind_speed_true_m/s,Wind_dir_true_degree,Air_temp_C,Oxygen
AOML_Explorer,Ex0702E,8.022,08012007,0:31:52,25.945,-79.741,372.54,-9.00,1019.54,1018.00,26.35,26.62,35.995,1.87,96.58,31.63,1019.54,61.10,24.00,21.00,17.50,365.31,2,-9.00,9,-9.00,0.06,8.78,130.32,24.98,231.84
AOML_Explorer,Ex0702E,8.024,08012007,0:34:25,25.953,-79.725,372.31,-9.00,1019.61,1018.10,26.34,26.61,36.000,1.85,96.83,31.65,1019.61,61.80,24.00,20.00,17.50,365.11,2,-9.00,9,-9.00,0.05,8.46,128.65,25.00,232.03
AOML_Explorer,Ex0702E,8.026,08012007,0:36:58,25.961,-79.708,372.06,-9.00,1019.55,1018.10,26.35,26.61,36.002,1.86,96.66,31.66,1019.55,62.10,23.90,17.00,17.50,364.72,2,-9.00,9,-9.00,0.05,7.81,122.87,24.97,232.32
AOML_Explorer,Ex0702E,8.027,08012007,0:39:31,25.969,-79.692,371.93,-9.00,1019.52,1018.20,26.35,26.56,36.010,1.86,96.85,31.66,1019.52,61.30,24.10,18.00,18.53,363.85,2,-9.00,9,-9.00,0.05,8.87,120.98,24.94,232.34
AOML_Explorer,Ex0702E,8.029,08012007,0:42:04,25.977,-79.675,371.71,-9.00,1019.47,1018.20,26.34,26.57,36.008,1.85,96.86,31.67,1019.47,61.60,24.00,22.00,18.01,363.91,2,-9.00,9,-9.00,0.05,9.27,129.57,24.97,232.22
AOML_Explorer,Ex0702E,8.031,08012007,0:44:37,25.985,-79.659,371.57,-9.00,1019.55,1018.20,26.33,26.56,36.007,1.86,97.10,31.68,1019.55,62.00,24.00,22.00,17.50,363.84,2,-9.00,9,-9.00,0.05,8.83,131.68,24.98,232.16
AOML_Explorer,Ex0702E,8.033,08012007,0:47:10,25.993,-79.642,371.23,-9.00,1019.38,1018.20,26.32,26.52,35.996,1.85,97.11,31.69,1019.38,62.20,24.00,21.00,18.01,363.06,2,-9.00,9,-9.00,0.05,8.95,127.70,24.90,232.03
AOML_Explorer,Ex0702E,8.035,08012007,0:49:43,26.001,-79.625,371.28,-9.00,1019.55,1018.10,26.30,26.52,35.989,1.84,97.40,31.69,1019.55,62.20,24.10,24.00,19.04,363.45,2,-9.00,9,-9.00,0.05,10.37,128.94,24.96,232.24
AOML_Explorer,Ex0702E,8.036,08012007,0:52:16,26.009,-79.609,370.90,-9.00,1019.46,1018.20,26.28,26.53,35.989,1.86,96.85,31.70,1019.46,62.10,24.20,24.00,19.04,363.44,2,-9.00,9,-9.00,0.05,10.35,129.16,24.96,232.31
AOML_Explorer,Ex0702E,8.038,08012007,0:54:49,26.017,-79.592,370.36,-9.00,1019.41,1018.30,26.28,26.64,35.956,1.86,96.83,31.70,1019.41,61.90,24.10,25.00,19.04,364.44,2,-9.00,9,-9.00,0.04,10.64,130.65,24.84,231.91
AOML_Explorer,Ex0702E,8.040,08012007,0:57:22,26.025,-79.576,370.04,-9.00,1019.43,1018.20,26.29,26.66,35.972,1.85,97.44,31.71,1019.43,60.30,24.10,26.00,19.04,364.32,2,-9.00,9,-9.00,0.04,10.70,129.37,24.91,231.60
AOML_Explorer,Ex0702E,8.042,08012007,0:59:55,26.034,-79.559,369.94,-9.00,1019.36,1018.20,26.38,26.68,35.965,1.81,97.09,31.71,1019.36,60.90,24.00,27.00,19.04,363.16,2,-9.00,9,-9.00,0.04,10.91,131.16,24.86,231.58
AOML_Explorer,Ex0702E,8.057,08012007,1:21:40,26.101,-79.418,369.37,-9.00,1019.45,1018.50,26.29,26.55,36.026,1.75,96.96,31.73,1019.45,62.90,23.80,33.00,18.53,362.06,2,-9.00,9,-9.00,0.04,11.34,139.47,24.85,231.05
AOML_Explorer,Ex0702E,8.058,08012007,1:24:13,26.109,-79.401,369.25,-9.00,1019.32,1018.50,26.29,26.46,36.048,1.75,97.08,31.73,1019.32,63.00,23.90,31.00,20.07,360.51,2,-9.00,9,-9.00,0.04,12.15,132.56,24.80,231.47
AOML_Explorer,Ex0702E,8.060,08012007,1:26:46,26.117,-79.385,369.54,-9.00,1019.54,1018.40,26.28,26.36,36.082,1.73,96.96,31.73,1019.54,63.30,23.90,34.00,19.56,359.67,2,-9.00,9,-9.00,0.05,12.29,137.92,24.76,231.28
AOML_Explorer,Ex0702E,8.062,08012007,1:29:19,26.124,-79.368,369.18,-9.00,1019.25,1018.60,26.21,26.34,36.134,1.77,97.47,31.72,1019.25,63.30,23.80,32.00,20.07,360.02,2,-9.00,9,-9.00,0.05,12.22,133.07,24.75,230.50
AOML_Explorer,Ex0702E,8.064,08012007,1:31:52,26.132,-79.351,368.93,-9.00,1019.51,1018.50,26.13,26.28,36.220,1.77,96.71,31.72,1019.51,63.10,24.00,30.00,19.56,360.13,2,-9.00,9,-9.00,0.05,11.48,132.85,24.77,230.50
AOML_Explorer,Ex0702E,8.066,08012007,1:34:25,26.139,-79.335,369.42,-9.00,1019.38,1018.50,26.10,26.21,36.293,1.78,97.26,31.73,1019.38,63.20,24.00,35.00,18.53,360.04,2,-9.00,9,-9.00,0.06,11.77,142.84,24.80,230.08
AOML_Explorer,Ex0702E,8.067,08012007,1:36:58,26.147,-79.318,370.70,-9.00,1019.49,1018.50,26.03,26.22,36.285,1.76,97.05,31.73,1019.49,63.10,24.00,35.00,20.07,362.51,2,-9.00,9,-9.00,0.06,12.93,138.04,24.79,230.20
AOML_Explorer,Ex0702E,8.069,08012007,1:39:31,26.155,-79.301,371.31,-9.00,1019.36,1018.70,25.99,26.23,36.281,1.77,97.18,31.73,1019.36,63.30,23.90,34.00,20.07,363.81,2,-9.00,9,-9.00,0.06,12.74,136.66,24.79,230.29
AOML_Explorer,Ex0702E,8.071,08012007,1:42:04,26.162,-79.284,371.33,-9.00,1019.36,1018.30,26.00,26.23,36.278,1.81,96.99,31.74,1019.36,63.20,23.90,36.00,20.07,363.79,2,-9.00,9,-9.00,0.06,13.13,139.00,24.79,230.17
AOML_Explorer,Ex0702E,8.073,08012007,1:44:37,26.169,-79.267,371.36,-9.00,1019.39,1018.70,26.00,26.22,36.278,1.82,97.33,31.74,1019.39,69.70,23.80,31.00,20.07,363.72,2,-9.00,9,-9.00,0.06,12.29,139.86,24.81,230.33
AOML_Explorer,Ex0702E,8.074,08012007,1:47:10,26.174,-79.249,371.29,-9.00,1019.39,1018.80,26.00,26.21,36.281,1.80,97.25,31.74,1019.39,76.60,23.70,29.00,20.59,363.45,2,-9.00,9,-9.00,0.06,12.21,141.57,24.86,230.32
AOML_Explorer,Ex0702E,8.076,08012007,1:49:43,26.178,-79.231,371.15,-9.00,1019.37,1018.60,25.99,26.20,36.284,1.78,96.68,31.75,1019.37,76.70,23.50,29.00,20.07,363.23,2,-9.00,9,-9.00,0.07,11.76,142.12,24.90,230.14
AOML_Explorer,Ex0702E,8.078,08012007,1:52:16,26.181,-79.213,371.15,-9.00,1019.47,1018.60,25.98,26.20,36.277,1.77,97.39,31.75,1019.47,80.40,23.50,27.00,20.59,363.48,2,-9.00,9,-9.00,0.07,11.74,140.89,24.95,230.36
AOML_Explorer,Ex0702E,8.080,08012007,1:54:49,26.184,-79.195,371.10,-9.00,1019.40,1018.60,25.98,26.20,36.281,1.77,96.84,31.75,1019.40,80.90,23.40,32.00,20.59,363.48,2,-9.00,9,-9.00,0.07,12.64,147.89,24.95,230.39
AOML_Explorer,Ex0702E,8.082,08012007,1:57:22,26.186,-79.177,371.47,-9.00,1019.49,1018.80,25.98,26.18,36.294,1.72,96.99,31.75,1019.49,84.90,23.30,29.00,21.10,363.49,2,-9.00,9,-9.00,0.07,12.52,146.11,24.92,230.48
AOML_Explorer,Ex0702E,8.083,08012007,1:59:55,26.188,-79.159,371.39,-9.00,1019.52,1018.70,25.97,25.95,36.395,1.73,97.37,31.75,1019.52,84.40,22.90,30.00,21.62,360.22,2,-9.00,9,-9.00,0.09,13.09,143.94,24.93,229.64
AOML_Explorer,Ex0702E,8.102,08012007,2:26:46,26.198,-78.971,371.59,-9.00,1019.24,1018.60,25.84,26.14,36.260,1.72,97.41,31.75,1019.24,91.80,22.40,31.00,20.59,365.02,2,-9.00,9,-9.00,0.06,12.45,153.50,24.95,230.23
AOML_Explorer,Ex0702E,8.104,08012007,2:29:19,26.197,-78.953,371.30,-9.00,1019.40,1018.60,25.88,26.14,36.278,1.69,96.71,31.75,1019.40,92.00,22.40,36.00,20.59,364.19,2,-9.00,9,-9.00,0.06,13.35,160.50,24.97,230.14
AOML_Explorer,Ex0702E,8.105,08012007,2:31:52,26.197,-78.936,371.46,-9.00,1019.38,1018.80,25.90,26.13,36.285,1.69,96.78,31.75,1019.38,92.50,22.40,30.00,21.10,363.98,2,-9.00,9,-9.00,0.06,12.55,150.26,24.98,230.20
AOML_Explorer,Ex0702E,8.107,08012007,2:34:25,26.196,-78.918,372.01,-9.00,1019.45,1018.80,25.90,26.14,36.289,1.71,97.24,31.76,1019.45,93.20,22.50,33.00,20.59,364.53,2,-9.00,9,-9.00,0.06,12.52,156.01,24.98,230.18
AOML_Explorer,Ex0702E,8.109,08012007,2:36:58,26.195,-78.901,372.23,-9.00,1019.60,1018.40,25.90,26.14,36.287,1.68,97.41,31.76,1019.60,93.80,22.30,28.00,18.53,364.97,2,-9.00,9,-9.00,0.06,9.85,153.39,25.06,230.22
AOML_Explorer,Ex0702E,8.111,08012007,2:39:31,26.194,-78.883,372.41,-9.00,1019.64,1018.60,25.91,26.15,36.289,1.67,97.01,31.76,1019.64,93.80,22.30,32.00,20.59,365.12,2,-9.00,9,-9.00,0.06,12.26,153.93,24.91,230.19
AOML_Explorer,Ex0702E,8.113,08012007,2:42:04,26.193,-78.866,372.63,-9.00,1019.65,1018.70,25.91,26.16,36.291,1.67,96.84,31.76,1019.65,94.60,22.50,33.00,20.07,365.38,2,-9.00,9,-9.00,0.06,12.02,157.96,24.92,230.31
AOML_Explorer,Ex0702E,8.114,08012007,2:44:37,26.191,-78.848,372.79,-9.00,1019.43,1018.30,25.92,26.14,36.296,1.71,94.51,31.76,1019.43,103.10,22.50,28.00,20.07,365.03,2,-9.00,9,-9.00,0.06,11.12,158.77,24.94,230.44
AOML_Explorer,Ex0702E,8.116,08012007,2:47:10,26.186,-78.831,372.85,-9.00,1019.58,1018.50,25.92,26.06,36.313,1.69,94.44,31.76,1019.58,108.80,22.90,19.00,19.04,364.06,2,-9.00,9,-9.00,0.06,8.51,149.88,24.95,230.81
AOML_Explorer,Ex0702E,8.118,08012007,2:49:43,26.181,-78.815,372.83,-9.00,1019.49,1018.40,25.91,25.80,36.422,1.68,97.44,31.76,1019.49,107.50,22.90,20.00,20.07,360.30,2,-9.00,9,-9.00,0.05,9.63,148.40,24.95,230.91
AOML_Explorer,Ex0702E,8.120,08012007,2:52:16,26.177,-78.798,372.40,-9.00,1019.70,1018.50,25.83,25.70,36.450,1.71,97.66,31.77,1019.70,107.80,23.10,15.00,20.07,359.76,2,-9.00,9,-9.00,0.06,8.87,137.85,24.92,230.12
AOML_Explorer,Ex0702E,8.121,08012007,2:54:49,26.172,-78.781,371.76,-9.00,1019.54,1018.50,25.66,25.53,36.472,1.72,97.60,31.77,1019.54,107.50,22.70,20.00,20.59,359.29,2,-9.00,9,-9.00,0.05,10.20,147.24,24.95,230.49
AOML_Explorer,Ex0702E,8.123,08012007,2:57:22,26.167,-78.764,371.86,-9.00,1019.66,1018.50,25.51,25.49,36.482,1.69,97.05,31.77,1019.66,107.40,22.60,18.00,20.07,361.11,2,-9.00,9,-9.00,0.05,9.52,144.28,24.89,229.76
AOML_Explorer,Ex0702E,8.125,08012007,2:59:55,26.161,-78.747,370.94,-9.00,1019.50,1018.40,25.40,25.49,36.481,1.69,97.07,31.77,1019.50,114.60,22.80,16.00,19.56,361.84,2,-9.00,9,-9.00,0.05,8.85,151.39,24.91,230.02
AOML_Explorer,Ex0702E,8.140,08012007,3:21:40,26.107,-78.610,370.07,-9.00,1019.51,1018.40,25.46,25.66,36.427,1.48,96.94,31.76,1019.51,110.50,22.50,12.00,20.59,362.51,2,-9.00,9,-9.00,0.05,9.73,140.55,25.02,231.71
AOML_Explorer,Ex0702E,8.142,08012007,3:24:13,26.101,-78.593,370.06,-9.00,1019.55,1018.30,25.47,25.72,36.401,1.50,96.80,31.75,1019.55,113.20,22.50,9.00,21.62,363.23,2,-9.00,9,-9.00,0.05,10.43,134.87,24.94,231.52
AOML_Explorer,Ex0702E,8.144,08012007,3:26:46,26.095,-78.577,370.09,-9.00,1019.52,1018.10,25.48,25.77,36.377,1.69,96.90,31.75,1019.52,113.90,22.50,7.00,20.07,363.77,2,-9.00,9,-9.00,0.05,8.77,132.99,25.05,232.37
AOML_Explorer,Ex0702E,8.145,08012007,3:29:19,26.088,-78.561,369.56,-9.00,1019.55,1018.40,25.52,25.81,36.402,1.74,97.35,31.75,1019.55,113.90,22.50,12.00,20.07,363.15,2,-9.00,9,-9.00,0.06,9.19,143.81,25.01,231.70
AOML_Explorer,Ex0702E,8.147,08012007,3:31:52,26.082,-78.545,369.00,-9.00,1019.46,1018.40,25.57,25.78,36.414,1.71,97.18,31.75,1019.46,110.50,22.60,18.00,20.59,361.51,2,-9.00,9,-9.00,0.07,10.26,150.30,24.96,230.45
AOML_Explorer,Ex0702E,8.149,08012007,3:34:25,26.078,-78.528,369.73,-9.00,1019.49,1018.30,25.59,25.81,36.422,1.68,97.40,31.75,1019.49,103.00,22.60,19.00,20.59,362.42,2,-9.00,9,-9.00,0.06,10.34,143.99,24.99,230.73
AOML_Explorer,Ex0702E,8.151,08012007,3:36:58,26.075,-78.511,371.04,-9.00,1019.42,1018.50,25.58,25.83,36.420,1.70,97.37,31.76,1019.42,98.50,22.80,26.00,20.59,364.04,2,-9.00,9,-9.00,0.06,11.39,152.73,24.96,230.79
AOML_Explorer,Ex0702E,8.152,08012007,3:39:31,26.072,-78.493,371.36,-9.00,1019.39,1018.40,25.61,25.83,36.409,1.68,97.46,31.76,1019.39,98.70,22.80,25.00,21.62,363.89,2,-9.00,9,-9.00,0.05,12.09,148.44,25.02,230.89
AOML_Explorer,Ex0702E,8.154,08012007,3:42:04,26.070,-78.475,371.37,-9.00,1019.63,1018.60,25.62,25.83,36.413,1.71,97.66,31.76,1019.63,98.70,22.70,19.00,20.59,363.81,2,-9.00,9,-9.00,0.05,10.33,140.15,24.89,230.67
AOML_Explorer,Ex0702E,8.156,08012007,3:44:37,26.067,-78.458,371.05,-9.00,1019.48,1018.70,25.63,25.82,36.423,1.67,97.50,31.76,1019.48,99.00,22.70,16.00,21.10,363.14,2,-9.00,9,-9.00,0.04,10.38,133.09,24.88,230.85
AOML_Explorer,Ex0702E,8.158,08012007,3:47:10,26.065,-78.440,370.93,-9.00,1019.35,1018.70,25.63,25.70,36.469,1.66,97.05,31.76,1019.35,98.90,22.80,21.00,21.62,361.27,2,-9.00,9,-9.00,0.04,11.49,141.73,24.81,231.72
AOML_Explorer,Ex0702E,8.160,08012007,3:49:43,26.062,-78.422,371.11,-9.00,1019.60,1018.70,25.62,25.39,36.541,1.69,97.25,31.77,1019.60,98.90,22.80,18.00,22.13,357.26,2,-9.00,9,-9.00,0.05,11.59,135.64,24.78,232.20
AOML_Explorer,Ex0702E,8.161,08012007,3:52:16,26.060,-78.405,370.58,-9.00,1019.31,1018.80,25.50,25.35,36.520,1.67,97.45,31.77,1019.31,99.00,22.70,24.00,22.65,357.78,2,-9.00,9,-9.00,0.05,12.89,144.76,24.75,231.80
AOML_Explorer,Ex0702E,8.163,08012007,3:54:49,26.057,-78.387,370.11,-9.00,1019.45,1018.60,25.29,25.33,36.514,1.67,97.14,31.77,1019.45,99.30,22.70,24.00,22.13,360.15,2,-9.00,9,-9.00,0.05,12.39,145.71,24.72,231.60
AOML_Explorer,Ex0702E,8.165,08012007,3:57:22,26.055,-78.370,369.30,-9.00,1019.38,1018.40,25.22,25.32,36.518,1.65,97.14,31.77,1019.38,99.10,22.80,18.00,21.10,360.37,2,-9.00,9,-9.00,0.05,10.55,136.73,24.83,231.62
AOML_Explorer,Ex0702E,8.167,08012007,3:59:55,26.052,-78.352,368.62,-9.00,1019.52,1018.60,25.19,25.32,36.521,1.68,97.63,31.77,1019.52,99.20,22.90,22.00,20.59,360.30,2,-9.00,9,-9.00,0.05,10.56,145.07,24.68,231.78
AOML_Explorer,Ex0702E,8.182,08012007,4:21:40,26.016,-78.204,366.61,-9.00,1019.31,1018.40,25.08,25.15,36.563,1.69,96.75,31.77,1019.31,107.30,22.90,17.00,21.10,357.37,2,-9.00,9,-9.00,0.06,10.40,144.11,24.57,232.41
AOML_Explorer,Ex0702E,8.183,08012007,4:24:13,26.011,-78.187,366.58,-9.00,1019.35,1018.40,25.03,25.16,36.574,1.65,97.14,31.76,1019.35,107.20,22.90,16.00,20.59,358.27,2,-9.00,9,-9.00,0.06,9.84,143.03,24.60,232.36
AOML_Explorer,Ex0702E,8.185,08012007,4:26:46,26.006,-78.170,366.35,-9.00,1019.21,1018.40,25.00,25.14,36.576,1.68,96.88,31.76,1019.21,107.10,22.90,20.00,21.62,358.11,2,-9.00,9,-9.00,0.06,11.31,148.35,24.58,232.51
AOML_Explorer,Ex0702E,8.187,08012007,4:29:19,26.001,-78.152,366.23,-9.00,1019.34,1018.30,25.01,25.16,36.571,1.67,97.46,31.76,1019.34,105.80,22.90,18.00,21.10,358.26,2,-9.00,9,-9.00,0.05,10.60,144.72,24.63,232.23
AOML_Explorer,Ex0702E,8.189,08012007,4:31:52,25.997,-78.135,365.76,-9.00,1019.17,1018.30,24.99,25.18,36.576,1.67,97.45,31.76,1019.17,104.50,23.00,21.00,22.13,358.31,2,-9.00,9,-9.00,0.05,12.04,148.62,24.63,232.18
AOML_Explorer,Ex0702E,8.191,08012007,4:34:25,25.993,-78.117,366.05,-9.00,1019.32,1018.40,25.01,25.32,36.512,1.69,97.47,31.76,1019.32,105.20,23.00,18.00,22.13,360.40,2,-9.00,9,-9.00,0.05,11.64,143.47,24.61,232.49
AOML_Explorer,Ex0702E,8.192,08012007,4:36:58,25.989,-78.100,366.02,-9.00,1019.06,1018.40,25.04,25.41,36.491,1.69,97.52,31.76,1019.06,104.50,22.90,22.00,22.13,361.13,2,-9.00,9,-9.00,0.05,12.30,150.96,24.59,232.54
AOML_Explorer,Ex0702E,8.194,08012007,4:39:31,25.985,-78.083,366.26,-9.00,1019.24,1018.50,25.14,25.46,36.480,1.67,97.04,31.76,1019.24,104.40,22.80,20.00,21.62,360.59,2,-9.00,9,-9.00,0.05,11.52,147.71,24.60,232.47
AOML_Explorer,Ex0702E,8.196,08012007,4:42:04,25.981,-78.065,366.61,-9.00,1019.36,1018.50,25.21,25.42,36.496,1.66,97.26,31.76,1019.36,104.70,22.70,16.00,22.13,359.37,2,-9.00,9,-9.00,0.05,11.50,139.21,24.59,232.39
AOML_Explorer,Ex0702E,8.198,08012007,4:44:37,25.977,-78.048,366.64,-9.00,1019.21,1018.20,25.25,25.53,36.454,1.67,97.62,31.75,1019.21,105.80,22.70,21.00,22.13,360.30,2,-9.00,9,-9.00,0.05,12.27,150.76,24.59,231.98
AOML_Explorer,Ex0702E,8.199,08012007,4:47:10,25.972,-78.031,366.45,-9.00,1019.19,1018.10,25.26,25.58,36.445,1.68,98.10,31.75,1019.19,107.00,22.60,21.00,22.13,360.76,2,-9.00,9,-9.00,0.05,12.24,151.16,24.62,231.70
AOML_Explorer,Ex0702E,8.201,08012007,4:49:43,25.967,-78.014,366.50,-9.00,1019.04,1018.00,25.34,25.60,36.442,1.66,97.94,31.75,1019.04,107.30,22.60,18.00,22.65,359.86,2,-9.00,9,-9.00,0.04,12.28,144.80,24.64,231.68
AOML_Explorer,Ex0702E,8.203,08012007,4:52:16,25.963,-77.997,366.95,-9.00,1019.08,1018.20,25.37,25.64,36.428,1.67,98.02,31.75,1019.08,106.90,22.50,20.00,21.10,360.29,2,-9.00,9,-9.00,0.04,11.21,151.28,24.54,231.78
AOML_Explorer,Ex0702E,8.205,08012007,4:54:49,25.958,-77.980,366.90,-9.00,1018.80,1018.30,25.39,25.69,36.420,1.67,97.68,31.75,1018.80,106.70,22.50,14.00,21.10,360.50,2,-9.00,9,-9.00,0.05,10.44,139.99,24.58,231.83
AOML_Explorer,Ex0702E,8.207,08012007,4:57:22,25.953,-77.964,366.76,-9.00,1018.81,1018.40,25.43,25.75,36.413,1.67,97.71,31.75,1018.81,108.50,22.50,23.00,22.13,360.76,2,-9.00,9,-9.00,0.04,12.57,155.70,24.60,231.90
AOML_Explorer,Ex0702E,8.208,08012007,4:59:55,25.948,-77.947,367.01,-9.00,1018.71,1018.20,25.48,25.79,36.418,1.65,97.78,31.75,1018.71,108.40,22.50,17.00,22.65,360.87,2,-9.00,9,-9.00,0.04,12.22,144.32,24.58,231.85
AOML_Explorer,Ex0702E,8.223,08012007,5:21:40,25.905,-77.805,366.64,-9.00,1018.71,1018.00,25.00,25.12,36.578,1.68,96.93,31.72,1018.71,109.60,22.20,22.00,21.10,357.92,2,-9.00,9,-9.00,0.07,11.41,154.48,24.55,231.10
AOML_Explorer,Ex0702E,8.225,08012007,5:24:13,25.900,-77.789,366.34,-9.00,1018.62,1018.00,24.98,25.12,36.578,1.64,97.01,31.71,1018.62,109.60,22.20,24.00,21.62,357.94,2,-9.00,9,-9.00,0.08,12.17,156.91,24.54,231.10
AOML_Explorer,Ex0702E,8.227,08012007,5:26:46,25.894,-77.773,366.45,-9.00,1018.62,1017.80,24.98,25.12,36.578,1.67,96.99,31.71,1018.62,109.60,22.20,15.00,19.56,358.12,2,-9.00,9,-9.00,0.07,9.02,143.80,24.53,231.62
AOML_Explorer,Ex0702E,8.229,08012007,5:29:19,25.889,-77.756,366.48,-9.00,1018.65,1018.00,24.97,25.13,36.579,1.67,97.08,31.70,1018.65,111.30,22.20,10.00,21.62,358.33,2,-9.00,9,-9.00,0.06,10.60,133.30,24.43,232.09
AOML_Explorer,Ex0702E,8.230,08012007,5:31:52,25.883,-77.740,366.24,-9.00,1018.65,1017.80,24.97,25.12,36.580,1.63,97.19,31.69,1018.65,111.90,22.10,18.00,21.10,357.99,2,-9.00,9,-9.00,0.06,10.85,148.51,24.45,232.25
AOML_Explorer,Ex0702E,8.232,08012007,5:34:25,25.877,-77.724,366.00,-9.00,1018.54,1017.90,24.98,25.11,36.580,1.66,97.18,31.69,1018.54,112.00,22.00,13.00,21.10,357.54,2,-9.00,9,-9.00,0.06,10.39,139.31,24.41,232.29
AOML_Explorer,Ex0702E,8.234,08012007,5:36:58,25.871,-77.708,365.83,-9.00,1018.60,1018.00,24.97,25.10,36.580,1.63,97.30,31.68,1018.60,112.00,22.00,15.00,22.13,357.29,2,-9.00,9,-9.00,0.06,11.58,141.89,24.43,232.40
AOML_Explorer,Ex0702E,8.236,08012007,5:39:31,25.866,-77.692,365.62,-9.00,1018.60,1018.00,24.96,25.09,36.579,1.64,97.49,31.68,1018.60,111.80,22.10,19.00,21.62,357.04,2,-9.00,9,-9.00,0.06,11.49,149.86,24.45,232.54
AOML_Explorer,Ex0702E,8.238,08012007,5:42:04,25.860,-77.676,365.50,-9.00,1018.61,1017.70,24.95,25.08,36.582,1.64,97.42,31.67,1018.61,111.90,22.10,16.00,20.59,356.94,2,-9.00,9,-9.00,0.06,10.18,146.35,24.48,232.64
AOML_Explorer,Ex0702E,8.239,08012007,5:44:37,25.854,-77.660,365.00,-9.00,1018.38,1018.00,24.94,25.07,36.579,1.65,97.45,31.67,1018.38,111.70,22.10,18.00,21.10,356.52,2,-9.00,9,-9.00,0.06,10.91,149.13,24.45,232.53
AOML_Explorer,Ex0702E,8.241,08012007,5:47:10,25.848,-77.644,364.81,-9.00,1018.57,1017.80,24.93,25.08,36.577,1.65,98.22,31.66,1018.57,111.70,22.10,13.00,21.10,356.60,2,-9.00,9,-9.00,0.06,10.35,139.20,24.39,232.70
AOML_Explorer,Ex0702E,8.243,08012007,5:49:43,25.843,-77.628,364.63,-9.00,1018.50,1017.90,24.93,25.09,36.579,1.60,97.29,31.66,1018.50,111.50,22.20,15.00,22.13,356.59,2,-9.00,9,-9.00,0.06,11.53,142.24,24.40,232.89
AOML_Explorer,Ex0702E,8.245,08012007,5:52:16,25.837,-77.612,364.55,-9.00,1018.43,1017.90,24.93,25.09,36.582,1.62,97.67,31.65,1018.43,112.00,22.30,15.00,21.62,356.47,2,-9.00,9,-9.00,0.05,10.96,143.04,24.39,233.01
AOML_Explorer,Ex0702E,8.246,08012007,5:54:49,25.831,-77.596,364.64,-9.00,1018.36,1017.80,24.93,25.09,36.583,1.62,97.62,31.65,1018.36,111.70,22.30,16.00,21.62,356.48,2,-9.00,9,-9.00,0.05,11.08,144.90,24.49,233.18
AOML_Explorer,Ex0702E,8.248,08012007,5:57:22,25.825,-77.580,364.70,-9.00,1018.41,1017.60,24.94,25.10,36.579,1.64,97.89,31.65,1018.41,112.00,22.40,13.00,21.10,356.69,2,-9.00,9,-9.00,0.06,10.19,139.52,24.38,233.30
AOML_Explorer,Ex0702E,8.250,08012007,5:59:55,25.819,-77.563,364.63,-9.00,1018.39,1017.70,24.93,25.09,36.589,1.61,97.92,31.64,1018.39,112.00,22.40,13.00,21.62,356.43,2,-9.00,9,-9.00,0.05,10.68,138.71,24.39,233.44
AOML_Explorer,Ex0702E,8.265,08012007,6:21:40,25.788,-77.417,364.36,-9.00,1018.26,1017.60,24.92,25.04,36.613,1.66,96.96,31.63,1018.26,99.80,22.70,21.00,21.62,355.72,2,-9.00,9,-9.00,0.05,11.66,144.10,24.42,233.39
AOML_Explorer,Ex0702E,8.267,08012007,6:24:13,25.786,-77.400,364.62,-9.00,1018.39,1017.80,24.90,25.07,36.601,1.64,97.58,31.63,1018.39,100.00,22.60,19.00,21.10,356.71,2,-9.00,9,-9.00,0.05,10.94,141.54,24.41,233.63
AOML_Explorer,Ex0702E,8.269,08012007,6:26:46,25.783,-77.382,364.46,-9.00,1018.23,1017.80,24.90,25.10,36.589,1.67,97.12,31.62,1018.23,99.60,22.60,28.00,21.10,356.88,2,-9.00,9,-9.00,0.05,12.40,156.82,24.43,233.49
AOML_Explorer,Ex0702E,8.270,08012007,6:29:19,25.780,-77.365,364.54,-9.00,1018.19,1017.70,24.92,25.09,36.589,1.67,97.31,31.61,1018.19,99.90,22.60,22.00,22.13,356.48,2,-9.00,9,-9.00,0.06,12.34,145.09,24.46,233.09
AOML_Explorer,Ex0702E,8.272,08012007,6:31:52,25.778,-77.348,364.92,-9.00,1018.17,1017.50,24.94,25.11,36.658,1.64,97.81,31.61,1018.17,99.60,22.70,21.00,20.07,356.86,2,-9.00,9,-9.00,0.06,10.31,147.97,24.54,233.33
AOML_Explorer,Ex0702E,8.274,08012007,6:34:25,25.775,-77.330,364.74,-9.00,1018.18,1017.60,24.94,25.08,36.637,1.64,97.58,31.60,1018.18,99.90,22.60,25.00,20.59,356.14,2,-9.00,9,-9.00,0.07,11.41,153.29,24.52,232.87
AOML_Explorer,Ex0702E,8.276,08012007,6:36:58,25.772,-77.313,364.34,-9.00,1018.13,1017.50,24.94,25.09,36.638,1.66,97.05,31.59,1018.13,99.90,22.60,21.00,19.56,356.00,2,-9.00,9,-9.00,0.07,9.83,148.76,24.50,232.56
AOML_Explorer,Ex0702E,8.277,08012007,6:39:31,25.770,-77.296,364.34,-9.00,1018.12,1017.50,24.93,25.11,36.639,1.67,97.38,31.59,1018.12,99.90,22.60,25.00,20.07,356.46,2,-9.00,9,-9.00,0.06,10.89,153.86,24.47,232.99
AOML_Explorer,Ex0702E,8.279,08012007,6:42:04,25.767,-77.278,364.27,-9.00,1018.08,1017.60,24.93,25.12,36.647,1.64,97.43,31.58,1018.08,99.90,22.60,27.00,21.62,356.40,2,-9.00,9,-9.00,0.06,12.60,153.66,24.51,233.03
AOML_Explorer,Ex0702E,8.281,08012007,6:44:37,25.764,-77.261,364.25,-9.00,1018.17,1017.70,24.95,25.14,36.644,1.64,97.81,31.58,1018.17,100.20,22.60,23.00,21.10,356.50,2,-9.00,9,-9.00,0.06,11.43,147.78,24.46,233.32
AOML_Explorer,Ex0702E,8.283,08012007,6:47:10,25.761,-77.244,364.25,-9.00,1018.15,1017.60,24.96,25.11,36.645,1.68,97.71,31.58,1018.15,100.60,22.60,24.00,21.62,355.85,2,-9.00,9,-9.00,0.06,12.02,148.50,24.43,233.19
AOML_Explorer,Ex0702E,8.285,08012007,6:49:43,25.758,-77.226,364.31,-9.00,1018.18,1017.60,24.97,25.10,36.619,1.65,97.54,31.57,1018.18,100.70,22.60,19.00,21.62,355.61,2,-9.00,9,-9.00,0.06,11.30,139.69,24.42,233.24
AOML_Explorer,Ex0702E,8.286,08012007,6:52:16,25.755,-77.209,364.52,-9.00,1018.23,1017.40,24.95,25.08,36.606,1.64,98.04,31.57,1018.23,105.00,22.70,14.00,20.07,355.81,2,-9.00,9,-9.00,0.06,9.22,137.55,24.43,233.15
AOML_Explorer,Ex0702E,8.288,08012007,6:54:49,25.750,-77.192,364.68,-9.00,1018.14,1017.70,24.94,25.06,36.607,1.64,98.00,31.57,1018.14,107.20,22.60,17.00,21.10,355.87,2,-9.00,9,-9.00,0.05,10.55,143.88,24.36,233.25
AOML_Explorer,Ex0702E,8.290,08012007,6:57:22,25.745,-77.175,364.50,-9.00,1018.12,1017.60,24.92,25.03,36.610,1.63,98.35,31.56,1018.12,107.40,22.60,15.00,21.62,355.48,2,-9.00,9,-9.00,0.06,10.80,138.32,24.44,233.22
AOML_Explorer,Ex0702E,8.292,08012007,6:59:55,25.740,-77.159,364.31,-9.00,1018.13,1017.20,24.91,24.99,36.615,1.64,97.79,31.56,1018.13,114.80,22.70,17.00,20.59,355.06,2,-9.00,9,-9.00,0.06,10.01,151.60,24.45,232.99
AOML_Explorer,Ex0702E,8.307,08012007,7:21:40,25.707,-77.015,354.99,-9.00,1018.10,1017.40,24.55,24.65,36.661,1.64,97.09,31.57,1018.10,94.50,22.50,30.00,18.53,346.40,2,-9.00,9,-9.00,0.04,10.00,156.45,24.15,233.84
AOML_Explorer,Ex0702E,8.308,08012007,7:24:13,25.706,-76.997,354.58,-9.00,1018.13,1017.40,24.54,24.62,36.661,1.64,97.19,31.56,1018.13,94.40,22.50,33.00,19.04,345.77,2,-9.00,9,-9.00,0.04,11.00,159.44,24.16,234.09
AOML_Explorer,Ex0702E,8.310,08012007,7:26:46,25.705,-76.979,354.29,-9.00,1017.98,1017.20,24.54,24.69,36.652,1.65,97.26,31.56,1017.98,96.50,22.60,30.00,18.53,346.47,2,-9.00,9,-9.00,0.04,10.11,159.66,24.14,234.55
AOML_Explorer,Ex0702E,8.312,08012007,7:29:19,25.703,-76.962,354.42,-9.00,1018.03,1017.40,24.53,24.70,36.699,1.65,97.26,31.55,1018.03,95.90,22.50,28.00,19.04,346.78,2,-9.00,9,-9.00,0.04,10.20,154.10,24.14,234.89
AOML_Explorer,Ex0702E,8.314,08012007,7:31:52,25.702,-76.944,353.64,-9.00,1018.22,1017.50,24.57,24.70,36.700,1.61,96.86,31.54,1018.22,93.90,22.60,29.00,19.56,345.61,2,-9.00,9,-9.00,0.04,10.89,153.48,24.13,235.18